TRANSIT 18 DEB, 35416

Orbit data source: Space-Track

TRANSIT 18 DEB, 35416 is space debris in LEO originally from a launch on Sat, 02 Mar 1968 UTC launched from the Air Force Western Test Range (AFWTR). Debris objects in space refer to the collection of defunct objects orbiting the Earth. Examples of debris include non-operational satellites, rocket bodies, and fragments generated from explosions, collisions, or faulty payload assembly.

Loading next visibility...
Identifier
35416, 1968-012F
Orbit
LEO
Country
Flag of USUS
Related business
Manufacturer
Unknown
Mission
Spacecraft
Bus & Motor
Unknown
Mass
Unknown
Launch date (UTC)
1968-03-02 (58 years ago)
Launch vehicle
Unknown
Launch site
Air Force Western Test Range (AFWTR)
Object type
Payload
Rocket body
Debris
Shape & HBR
Unknown shape, 0.2 m
Radar Cross Section
Medium (>0.1 m² and <1 m²)

Expand to show TLE details & history
Last TLE update: 11 hours ago

TLE from 11 hours ago
0 TRANSIT 18 DEB
1 35416U 68012F   26209.16326051  .00000635  00000-0  83830-3 0  9998
2 35416  90.0227 273.4926 0067912 127.0042 303.2808 13.59095915860101
Epoch: 2026-07-28T03:55Z
TLE epoch observation values (Epoch: 2026-07-28T03:55:05.708Z)
Latitude
69.70289°
Longitude
-91.17867°
Altitude
1,023.719 km
Speed
7.36 km/s
True Right ascension
18h 13m 43s
True Declination
69° 35' 41"
Sunlit
Object was in daylight at epoch
Visualization orbit readout
Latitude
Unknown
Longitude
Unknown
Altitude
Unknown
Speed
Unknown
Apparent Right ascension
Unknown
Apparent Declination
Unknown
Sunlit
N/A
Visualization observer readout
Local Sidereal Time
04:47:39
Azimuth
Unknown
Elevation
Unknown
Doppler factor
Unknown
Orbital elements
Apogee altitude
1,086.367 km
Perigee altitude
985.665 km
Semi-major axis
7,414.153 km
Eccentricity
0.00679
Inclination
90.0227°
RAAN
273.4926°
Arg. of periapsis
127.0042°
True anomaly
302.62719°
Mean anomaly
303.2808°
Eccentric anomaly
302.9543°
Mean motion
3.39978 °/min
Orbital period
105.89 mins
BSTAR
0.0008383
Loading maneuver chart data...
Computing Atmospheric mass density...
Loading historical data...
Loading historical data...
Loading historical data...
Loading historical data...
Loading historical data...
Loading historical data...
Loading historical data...

Documentation

Showing up to 5 results
|